Simultaneous Nadir Overpasses (SNOs) Predictions

Prediction of SNOs between METOP-B and TERRA Satellite Orbit:

Table of predicted SNOs for the next 14.0 days since TLE Epoch: 8/3/2024
Index Date (METOP-B) Time (METOP-B) Lat,Lon (METOP-B) SZA (METOP-B ) Date (TERRA) Time (TERRA) Lat,Lon (TERRA) SZA (TERRA ) Distance(km) Time Diff (sec)
1 08/04/2024 15:43:48 -79.92, 142.24 116.67 08/04/2024 15:44:33 -79.92, 142.14 116.67 1.98 45
2 08/04/2024 16:34:25 80.03, -49.43 63.50 08/04/2024 16:33:51 80.03, -49.33 63.50 1.96 34
3 08/07/2024 06:14:13 -79.85, -76.05 116.05 08/07/2024 06:15:00 -79.85, -76.00 116.03 1.11 47
4 08/07/2024 07:04:46 80.07, 93.44 64.30 08/07/2024 07:04:15 80.07, 93.36 64.28 1.45 31
5 08/09/2024 20:44:36 -79.83, 66.16 115.33 08/09/2024 20:45:25 -79.83, 66.20 115.31 0.77 49
6 08/09/2024 21:35:09 80.06,-124.37 65.02 08/09/2024 21:34:40 80.05,-124.46 65.00 1.83 29
7 08/12/2024 11:14:55 -79.90,-150.84 114.45 08/12/2024 11:15:46 -79.89,-150.99 114.45 3.10 51
8 08/12/2024 12:05:32 80.00, 17.45 65.71 08/12/2024 12:05:04 80.00, 17.49 65.71 0.76 28
9 08/15/2024 01:45:20 -79.80, -9.35 113.78 08/15/2024 01:46:11 -79.81, -9.23 113.76 2.60 51



Historial Predications of SNOs between METOP-B and TERRA
